BREEZE-M DEB (TANK), 40386

Orbit data source: Space-Track

BREEZE-M DEB (TANK), 40386 is space debris in HEO originally from a launch on Sun, 01 Feb 2015 UTC launched from the Tyuratam Missile And Space Complex (TTMTR). Debris objects in space refer to the collection of defunct objects orbiting the Earth. Examples of debris include non-operational satellites, rocket bodies, and fragments generated from explosions, collisions, or faulty payload assembly.

Loading next visibility...
Identifier
40386, 2015-005C
Orbit
HEO
Last TLE update
6 hours ago
Origin
Manufacturer
Khrunichev
Mission
Spacecraft
Bus & Motor
BRIZ TANK, Unknown motor
Mass
~1,000 kg wet, 1,000 kg dry
Launch date (UTC)
2015-02-01 (10 years ago)
Launch vehicle
Unknown
Launch site
Tyuratam Missile And Space Complex (TTMTR)
Object type
Payload
Rocket body
Debris
Shape & HBR
Torus, 4 m
Radar Cross Section
8.218 m², Large (>1 m²)

Expand to show TLE details & history

TLE from 6 hours ago
0 BREEZE-M DEB (TANK)
1 40386U 15005C   25186.52438387  .00000302  00000-0  28600-3 0  9998
2 40386  50.7490 312.9166 5109701 305.0833  17.0380  5.33030174197249
Epoch: 2025-07-05T12:35Z
TLE epoch observation values (Epoch: 2025-07-05T12:35:06.766Z)
Latitude
-0.00006°
Longitude
-159.63812°
Altitude
1,529.053 km
Speed
8.488 km/s
True Right ascension
20h 51m 36s
True Declination
0° 00' 00"
Sunlit
Object was in full shadow at epoch
Visualization orbit readout
Latitude
49.79962°
Longitude
-54.54885°
Altitude
12,618.902 km
Speed
3.632 km/s
Apparent Right ascension
02h 35m 38s
Apparent Declination
49° 51' 34"
Sunlit
Object is in daylight
Visualization observer readout
Local Sidereal Time
06:15:29
Azimuth
303.461° NW
Elevation
50.75°
Doppler factor
1
Orbital elements
Apogee altitude
14,539.177 km
Perigee altitude
391.813 km
Semi-major axis
13,843.632 km
Eccentricity
0.51097
Inclination
50.749°
RAAN
312.9166°
Arg. of periapsis
305.0833°
True anomaly
Unknown
Mean anomaly
17.038°
Eccentric anomaly
Unknown
Mean motion
1.3325 °/min
Orbital period
270.17 mins
BSTAR
0.000286
Loading maneuver chart data...
Loading SW <> Apogee altitude chart data...
Loading historical data...
Loading historical data...
Loading historical data...
Loading historical data...
Loading historical data...
Loading historical data...
Loading historical data...
Other satellites on launch #5 in the year 2015 (2015-02-01 UTC)

BREEZE-M DEB (TANK) Visibility forecast

Observer location: undefined°, undefined°

Span
Click to sort rows by Start time (UTC) header in descending order
Start Az.
Max El. time (UTC)
Max El. Az.
Max El.
End time (UTC)
End Az.
143 mins2025-07-05 18:19:58.813Z303.402° NW2025-07-05 19:20:58.813Z245.897° WSW44.033°2025-07-05 20:42:58.813Z166.392° S
45 mins2025-07-05 23:24:58.813Z303.815° NW2025-07-05 23:46:58.813Z294.838° NW11.338°2025-07-06 00:09:58.813Z284.652° WNW
135 mins2025-07-06 11:12:58.813Z224.877° SW2025-07-06 11:28:58.813Z142.225° SSE44.956°2025-07-06 13:27:58.813Z69.423° E
139 mins2025-07-06 16:00:58.813Z292.422° WNW2025-07-06 17:26:58.813Z45.044° ENE44.913°2025-07-06 18:19:58.813Z135.6° SSE
|